This demonstration page uses our WeatherBlox Daily Observations layout. Learn more.

Left ArrowRight Arrow

38.80484, -77.04692

Hourly Observations for April 18, 2021

Temp ( °F °C ) Dew Point ( °F °C ) Humidity (%) Winds ( mph kmh ) Pressure ( in mb ) Visibility ( mi km ) Precip ( " mm )
12:52 am 00:52 Mostly Clear 53 11.7 38 3.3 57 57 NNW 7 11 29.89 1012 10 16 N/A
1:52 am 01:52 Partly Cloudy 53 11.7 36 2.2 52 52 WNW 7 11 29.87 1012 10 16 N/A
2:52 am 02:52 Mostly Cloudy 51 10.6 36 2.2 56 56 W 7 11 29.87 1012 10 16 N/A
3:52 am 03:52 Cloudy 48 8.9 37 2.8 66 66 N 6 9 29.88 1012 10 16 N/A
4:52 am 04:52 Mostly Cloudy 49 9.4 37 2.8 64 64 NNW 8 13 29.88 1012 10 16 N/A
5:52 am 05:52 Mostly Cloudy 48 8.9 37 2.8 66 66 NNW 9 15 29.89 1012 10 16 N/A
6:52 am 06:52 Partly Cloudy 48 8.9 37 2.8 66 66 NW 7 11 29.91 1013 10 16 N/A
7:52 am 07:52 Partly Cloudy 50 10 37 2.8 61 61 NNW 8 13 29.93 1014 10 16 N/A
8:52 am 08:52 Partly Cloudy 53 11.7 37 2.8 55 55 NNW 9 15 29.94 1014 10 16 N/A
9:52 am 09:52 Mostly Sunny 57 13.9 39 3.9 51 51 NNW 6 9 29.94 1014 10 16 N/A
10:52 am 10:52 Mostly Sunny 60 15.6 40 4.4 47 47 NE 7 11 29.93 1014 10 16 N/A
11:52 am 11:52 Partly Cloudy 61 16.1 39 3.9 44 44 NE 7 11 29.91 1013 10 16 N/A
12:52 pm 12:52 Partly Cloudy 63 17.2 39 3.9 41 41 E 7 11 29.89 1012 10 16 N/A
1:52 pm 13:52 Partly Cloudy 65 18.3 36 2.2 34 34 VRB 6 9 29.88 1012 10 16 N/A
2:52 pm 14:52 Partly Cloudy 66 18.9 36 2.2 33 33 WNW 6 9 29.86 1011 10 16 N/A
3:52 pm 15:52 Partly Cloudy 65 18.3 36 2.2 34 34 NW 9 15 29.85 1011 10 16 N/A
4:52 pm 16:52 Cloudy 64 17.8 36 2.2 35 35 W 12 19 29.86 1011 10 16 N/A
5:52 pm 17:52 Cloudy 63 17.2 37 2.8 38 38 WSW 7 11 29.87 1012 10 16 N/A
6:52 pm 18:52 Mostly Cloudy 62 16.7 39 3.9 43 43 WNW 8 13 29.88 1012 10 16 N/A
7:52 pm 19:52 Mostly Cloudy 61 16.1 38 3.3 43 43 WNW 5 7 29.87 1012 10 16 N/A
8:52 pm 20:52 Cloudy 61 16.1 38 3.3 43 43 S 3 6 29.88 1012 10 16 N/A
9:52 pm 21:52 Cloudy 58 14.4 43 6.1 58 58 S 3 6 29.89 1012 10 16 N/A
10:52 pm 22:52 Cloudy 57 13.9 43 6.1 60 60 SSW 3 6 29.89 1012 10 16 N/A
11:52 pm 23:52 Mostly Cloudy 56 13.3 47 8.3 72 72 S 5 7 29.89 1012 10 16 N/A

Powered by AerisWeather